Barter Island, AK

4:11 PM AKDT on October 19, 2017 (GMT -0800)
Barter Island LRRS

Weather History for PABA - December, 2012

Change the Weather History Date:

Wednesday, December 26, 2012

  Actual Average Record
Temperature  
Mean Temperature -3 °F -  
Max Temperature -9 °F 2 °F 26 °F (2008)
Min Temperature -9 °F -8 °F -35 °F (2011)
Degree Days  
Heating Degree Days 68    
Moisture  
Dew Point -5 °F    
Average Humidity 86    
Maximum Humidity 92    
Minimum Humidity 78    
Precipitation  
Precipitation 0.00 in - - ()
Sea Level Pressure  
Sea Level Pressure 29.80 in    
Wind  
Wind Speed 9 mph (WNW)    
Max Wind Speed 17 mph    
Max Gust Speed -    
Visibility 7 miles    
Events Snow    
Averages and records for this station are not official NWS values.
T = Trace of Precipitation, MM = Missing Value Source: NWS Daily Summary

Daily Weather History Graph

Daily Weather History Graph

Search for Another Location

Airport or City:

Trip Planner

Search our weather history database for the weather conditions in past years. The results will help you decide how hot, cold, wet, or windy it might be!

Date:

Astronomy

Dec. 31, 1969 Rise Set
Actual Time Sun does not rise Sun does not rise
Civil Twilight 10:31 AM AKST 2:39 PM AKST
Nautical Twilight 8:42 AM AKST 4:28 PM AKST
Astronomical Twilight 7:22 AM AKST 5:48 PM AKST
Moon No Moon Rise No Moon Set
Length of Visible Light 4h 07m
Length of Day
0h 00m
Waxing Gibbous, 98% of the Moon is Illuminated
Dec 26
Waxing Gibbous
Dec 28
Full
Jan 4
Last Quarter
Jan 11
New
Jan 18
First Quarter

Hourly Weather History & Observations

Time (AKST) Temp. Windchill Dew Point Humidity Pressure Visibility Wind Dir Wind Speed Gust Speed Precip Events Conditions
12:01 AM 1.0 °F -14.0 °F -2.0 °F 87% 29.78 in 2.5 mi ENE 9.2 mph - N/A   Overcast
12:17 AM 1.4 °F -11.3 °F -2.2 °F 85% 29.79 in 1.2 mi ENE 6.9 mph - N/A   Overcast
12:28 AM 1.4 °F -12.5 °F -2.2 °F 85% 29.79 in 1.0 mi NE 8.1 mph - N/A   Overcast
1:01 AM 1.4 °F -12.5 °F -0.4 °F 92% 29.77 in 1.2 mi East 8.1 mph - 0.00 in   Overcast
1:22 AM 1.4 °F -13.5 °F -0.4 °F 92% 29.77 in 3.0 mi East 9.2 mph - 0.00 in   Overcast
2:01 AM 1.9 °F -12.9 °F -0.9 °F 88% 29.77 in 5.0 mi ENE 9.2 mph - 0.00 in   Mostly Cloudy
2:44 AM 1.4 °F -9.9 °F -0.4 °F 92% 29.77 in 10.0 mi NNE 5.8 mph - N/A   Scattered Clouds
3:01 AM 1.9 °F -9.2 °F -0.9 °F 88% 29.77 in 7.0 mi NNE 5.8 mph - N/A   Scattered Clouds
3:14 AM 1.4 °F -11.3 °F -0.4 °F 92% 29.77 in 2.5 mi North 6.9 mph - N/A   Mostly Cloudy
3:26 AM 1.4 °F -8.3 °F -0.4 °F 92% 29.77 in 1.5 mi North 4.6 mph - N/A   Overcast
4:01 AM 3.0 °F -6.4 °F -0.0 °F 87% 29.77 in 1.2 mi NNW 4.6 mph - N/A   Overcast
4:09 AM 3.2 °F -6.2 °F -0.4 °F 85% 29.77 in 3.0 mi NW 4.6 mph - N/A   Overcast
4:36 AM 3.2 °F -9.1 °F -0.4 °F 85% 29.77 in 10.0 mi NW 6.9 mph - N/A   Scattered Clouds
5:01 AM 3.0 °F -9.3 °F -0.0 °F 87% 29.78 in 10.0 mi NW 6.9 mph - N/A   Partly Cloudy
6:01 AM 3.0 °F -11.5 °F -0.0 °F 87% 29.77 in 10.0 mi NW 9.2 mph - N/A   Clear
7:01 AM 1.9 °F -7.6 °F -0.9 °F 88% 29.78 in 10.0 mi NW 4.6 mph - N/A   Clear
8:01 AM 1.9 °F -9.2 °F -0.9 °F 88% 29.80 in 10.0 mi NW 5.8 mph - N/A   Clear
9:01 AM 1.9 °F -10.6 °F -0.9 °F 88% 29.81 in 10.0 mi WNW 6.9 mph - N/A   Clear
10:01 AM 1.0 °F -16.6 °F -0.9 °F 91% 29.81 in 10.0 mi West 12.7 mph - N/A   Clear
10:56 AM -0.4 °F -21.2 °F -5.8 °F 78% 29.81 in 2.5 mi West 17.3 mph - 0.00 in Snow Light Snow
11:01 AM -2.2 °F -23.5 °F -5.8 °F 85% 29.82 in 3.0 mi West 17.3 mph - 0.00 in Snow Light Snow
11:32 AM -2.2 °F -22.9 °F -7.6 °F 78% 29.82 in 2.0 mi WSW 16.1 mph - 0.00 in Snow Light Snow
12:01 PM -4.0 °F -23.7 °F -7.6 °F 85% 29.82 in 3.0 mi WSW 13.8 mph - 0.00 in Snow Light Snow
1:01 PM -5.1 °F -24.3 °F -8.0 °F 87% 29.83 in 10.0 mi WSW 12.7 mph - 0.00 in   Clear
2:01 PM -5.1 °F -22.5 °F -9.0 °F 83% 29.83 in 10.0 mi WSW 10.4 mph - N/A   Clear
3:01 PM -5.1 °F -24.3 °F -9.0 °F 83% 29.83 in 10.0 mi WSW 12.7 mph - N/A   Clear
4:01 PM -6.0 °F -23.6 °F -9.9 °F 83% 29.82 in 10.0 mi West 10.4 mph - N/A   Clear
5:01 PM -7.1 °F -23.9 °F -11.0 °F 83% 29.81 in 10.0 mi WSW 9.2 mph - N/A   Clear
6:01 PM -8.0 °F -26.1 °F -11.9 °F 83% 29.82 in 9.0 mi West 10.4 mph - 0.00 in Snow Light Snow
7:01 PM -9.0 °F -26.4 °F -11.9 °F 87% 29.82 in 10.0 mi WSW 9.2 mph - 0.00 in   Clear
8:01 PM -9.9 °F -28.6 °F -13.0 °F 86% 29.82 in 10.0 mi WSW 10.4 mph - N/A   Clear
9:01 PM -9.0 °F -25.2 °F -13.0 °F 83% 29.82 in 10.0 mi WSW 8.1 mph - N/A   Clear
10:01 PM -8.0 °F -25.0 °F -11.9 °F 83% 29.82 in 10.0 mi WSW 9.2 mph - N/A   Clear
11:01 PM -9.0 °F -25.2 °F -13.0 °F 83% 29.82 in 10.0 mi WSW 8.1 mph - N/A   Clear